Flag for Puerto Rico Weather past 2 weeks in San Juan, Puerto Rico

Now
77 °F

Scattered clouds.


Feels Like: 79 °F
Forecast: N/A
Wind: 7 mph from East

Location: Luis Munoz Marin

Current Time: Jan 30, 2015 at 7:39:16 PM

Latest Report: Jan 30, 2015 at 6:56 PM


Visibility: 10 mi

Pressure: 29.97 "Hg

Humidity: 82%

Dew point: 71 °F

Location of San JuanLocation

Historic Weather in San Juan — Graph

°F

San Juan temperature yesterday

Maximum temperature yesterday: 85 °F (at 1:56 PM)
Minimum temperature yesterday: 75 °F (at 2:56 AM)
Average temperature yesterday: 79 °F

Past Weeks' High & Low Weather Summary

 TemperatureHumidityPressure
High88 °F (Jan 27, 2:56 PM)100% (Jan 17, 11:56 PM)30.06 "Hg (Jan 17, 11:56 PM)
Low72 °F (Jan 16, 5:56 AM)51% (Jan 28, 12:56 PM)29.93 "Hg (Jan 16, 3:56 PM)
Average78 °F80%30.00 "Hg
* Reported Jan 15 5:56 PM — Jan 30 5:56 PM, San Juan, Weather by CustomWeather, © 2014

Note: Actual official high and low records may vary slightly from our data, if they occured in-between our weather recording intervals... More about our weather records

Advertising

San Juan weather history for previous 24 hours

 ConditionsComfort  
Time TempWeatherWind HumidityBarometerVisibility
5:56 PM
Jan 30
78 °FScattered clouds.9 mph82%29.97 "Hg10 mi
4:56 PM80 °FScattered clouds.9 mph74%29.96 "Hg10 mi
3:56 PM81 °FScattered clouds.13 mph72%29.95 "Hg10 mi
2:56 PM82 °FScattered clouds.13 mph70%29.96 "Hg10 mi
1:56 PM82 °FScattered clouds.12 mph72%29.97 "Hg10 mi
12:56 PM82 °FScattered clouds.12 mph74%29.99 "Hg10 mi
11:56 AM81 °FBroken clouds.15 mph72%30.01 "Hg10 mi
10:56 AM80 °FBroken clouds.8 mph74%30.03 "Hg10 mi
9:56 AM81 °FScattered clouds.No wind77%30.04 "Hg10 mi
8:56 AM75 °FPartly sunny.No wind100%30.03 "Hg10 mi
7:56 AM74 °FLight rain. Passing clouds.3 mph91%30.01 "Hg10 mi
6:56 AM73 °FPartly cloudy.No wind94%30.00 "Hg10 mi
5:56 AM73 °FPartly cloudy.No wind94%29.98 "Hg10 mi
4:56 AM73 °FPassing clouds.5 mph100%29.97 "Hg10 mi
3:56 AM72 °FLight rain. Passing clouds.6 mph100%29.97 "Hg10 mi
2:56 AM73 °FLight rain. Partly cloudy.No wind97%29.98 "Hg7 mi
1:56 AM76 °FPassing clouds.No wind85%29.98 "Hg10 mi
12:56 AM76 °FPassing clouds.No wind85%29.99 "Hg10 mi
11:56 PM
Jan 29
76 °FPassing clouds.9 mph88%30.01 "Hg10 mi
10:56 PM77 °FPassing clouds.No wind85%30.01 "Hg10 mi
9:56 PM77 °FPassing clouds.3 mph82%30.01 "Hg10 mi
8:56 PM78 °FPassing clouds.3 mph82%30.01 "Hg10 mi
7:56 PM79 °FPassing clouds.5 mph79%29.99 "Hg10 mi
Weather by CustomWeather, © 2014

See weather overviewHow to use our weather pages